This is the latest recevied weather packets stored in our database for station/object EA1FBN. If no packets are shown the sender has not sent any weather packets the latest 10 day(s).
| Time | Temp. | Humidity | Pressure | Rain* | Wind** | Luminosity | Snow |
|---|---|---|---|---|---|---|---|
| 1778177099 | 13.89° C | 73% | 1010.5 hPa | 0 mm | - | - | - |
| 1778176799 | 13.33° C | 74% | 1010.5 hPa | 0 mm | - | - | - |
| 1778176499 | 13.33° C | 74% | 1010.5 hPa | 0 mm | - | - | - |
| 1778176199 | 13.33° C | 58% | 1010.5 hPa | 0 mm | - | - | - |
| 1778175899 | 13.33° C | 52% | 1010.5 hPa | 0 mm | - | - | - |
| 1778175599 | 13.33° C | 49% | 1010.5 hPa | 0 mm | - | - | - |
| 1778175299 | 13.33° C | 47% | 1010.4 hPa | 0 mm | - | - | - |
| 1778174999 | 13.33° C | 47% | 1010.4 hPa | 0.25 mm | - | - | - |
| 1778174699 | 12.78° C | 49% | 1010.4 hPa | 0.25 mm | - | - | - |
| 1778174399 | 12.78° C | 46% | 1010.3 hPa | 0.25 mm | - | - | - |
| 1778174099 | 13.33° C | 43% | 1010.4 hPa | 0.25 mm | - | - | - |
| 1778173799 | 12.78° C | 44% | 1010.4 hPa | 0.25 mm | - | - | - |
| 1778173499 | 12.78° C | 43% | 1010.4 hPa | 0.25 mm | - | - | - |
| 1778173199 | 12.22° C | 42% | 1010.4 hPa | 0.25 mm | - | - | - |
| 1778172899 | 12.22° C | 41% | 1010.4 hPa | 0.25 mm | - | - | - |
| 1778172599 | 12.22° C | 41% | 1010.3 hPa | 0.25 mm | - | - | - |
| 1778172299 | 12.22° C | 41% | 1010.3 hPa | 0.25 mm | - | - | - |
| 1778171999 | 12.22° C | 41% | 1010.4 hPa | 0.25 mm | - | - | - |
| 1778171699 | 11.67° C | 41% | 1010.4 hPa | 0.25 mm | - | - | - |
| 1778171400 | 11.67° C | 42% | 1010.3 hPa | 0 mm | - | - | - |
| 1778171099 | 11.11° C | 43% | 1010.4 hPa | 0 mm | - | - | - |
| 1778170799 | 10.56° C | 44% | 1010.3 hPa | 0 mm | - | - | - |
| 1778170499 | 10.56° C | 45% | 1010.3 hPa | 0 mm | - | - | - |
| 1778170199 | 10° C | 45% | 1010.2 hPa | 0 mm | - | - | - |
| 1778169899 | 10° C | 46% | 1010.1 hPa | 0 mm | - | - | - |
* Rain latest hour (hover to see other rain measurements)
** Current wind speed in m/s (hover to see current wind gust speed)